Find Starlink 33942

NORAD ID: 63974 Int'l Des: 2025-099 Owner: SPXS Country: US Constellation: starlink operational
LEOCIRCULAR

实时位置

正在加载3D地球...

关于 Starlink 33942

正在加载描述...

即将过境

Passes for default location (London). Set your location on the main map for personalized predictions.

高度历史

Loading altitude history...

两行轨道根数

1 63974U 25099Y 26103.99426987 .00013908 00000-0 51367-3 0 9996
2 63974 43.0012 333.5444 0001340 274.2248 85.8450 15.27599952 52779
Epoch: Apr 13, 2026 • Age: 15 hours

当前状态

高度 484.1 km
速度 7.62 km/s
星下点 -8.06°S, 93.6°E
发射日期 May 13, 2025
运行时间 0.9 years
类型 internet

技术详情

分类 Payload
质量 575.00 kg
干质量 530.00 kg
总质量 575.00 kg
长度 0.30 m
直径 4.10 m
跨度 29.00 m
形状 Box + pan
制造商 SPXS
平台类型 Starlink V2MO
阶段状态 In Orbit
所有者/国家 SPXS/US

Most Searched